STARLINK-31876, 59938

Orbit data source: Space-Track

STARLINK-31876, 59938 is a payload satellite owned by SpaceX/Seattle (US) in LEO that was launched on Sat, 01 Jun 2024 UTC via an FALCON 9 launch vehicle from the Air Force Eastern Test Range (AFETR). Payload-class satellites include a variety of spacecraft equipped with specific instruments for various scientific and technological missions. These include communications satellites like Starlink; space stations such as the ISS; scientific satellites like the Hubble; Earth observation satellites from companies like Planet Labs, Umbra, and HawkEye 360; GPS; miniature CubeSats for education and research; and military/defense satellites.

Loading next visibility...
Identifier
59938, 2024-106S
Orbit
LEO
Country
Flag of USUS
Related business
Manufacturer
SpaceX/Seattle
Mission
Operational Commercial Communications
Bus & Motor
STARLINK V2M, Unknown motor
Mass
730 kg wet, ~700 kg dry
Launch date (UTC)
2024-06-01 (2 years ago)
Launch vehicle
FALCON 9
Launch site
Air Force Eastern Test Range (AFETR)
Object type
Payload
Rocket body
Debris
Shape & HBR
Box + 2 Pan, 17.7 m
Radar Cross Section
33.884 m², Large (>1 m²)

Expand to show TLE details & history
Last TLE update: 17 hours ago

TLE from 17 hours ago
0 STARLINK-31876
1 59938U 24106S   26177.42628072  .00000824  00000-0  39447-4 0  9996
2 59938  43.0037  78.3552 0000724 288.5084  71.5689 15.27588852117164
Epoch: 2026-06-26T10:13Z
TLE epoch observation values (Epoch: 2026-06-26T10:13:50.654Z)
Latitude
-0.00001°
Longitude
10.33918°
Altitude
482.641 km
Speed
7.626 km/s
True Right ascension
05h 13m 25s
True Declination
0° 00' 00"
Sunlit
Object was in daylight at epoch
Visualization orbit readout
Latitude
Unknown
Longitude
Unknown
Altitude
Unknown
Speed
Unknown
Apparent Right ascension
Unknown
Apparent Declination
Unknown
Sunlit
N/A
Visualization observer readout
Local Sidereal Time
14:09:26
Azimuth
Unknown
Elevation
Unknown
Doppler factor
Unknown
Orbital elements
Apogee altitude
485.464 km
Perigee altitude
484.47 km
Semi-major axis
6,863.104 km
Eccentricity
0.00007
Inclination
43.0037°
RAAN
78.3552°
Arg. of periapsis
288.5084°
True anomaly
71.57677°
Mean anomaly
71.5689°
Eccentric anomaly
71.57284°
Mean motion
3.81735 °/min
Orbital period
94.31 mins
BSTAR
0.000039447
Loading maneuver chart data...
Computing Atmospheric mass density...
Loading historical data...
Loading historical data...
Loading historical data...
Loading historical data...
Loading historical data...
Loading historical data...
Loading historical data...

Documentation

Showing up to 5 results
|